SHIJIAN-30A

Last updated on Thu Dec 18 2025 00:02:05 GMT+0000 (Coordinated Universal Time)

1 66545U 25266A 25351.70263025 .00009666 00000+0 51776-3 0 9993 2 66545 51.7994 309.6121 0013021 14.0099 346.1236 15.15559903 4333
UTC large
Height (km)
Speed (km/s)
/
Latitude / Longitude
Inclination (degrees)
Orbital Period (minutes)
Azimuth
Elevation
Range (km)
Doppler Factor

Next 0 passes for location: London (51.5072 / 0.1276)

Sorry there are no passes over London.